This demonstration page uses our WeatherBlox Daily Observations layout. Learn more.

Left ArrowRight Arrow

44.8408, -93.29828

Hourly Observations for July 21, 2022

Temp ( °F °C ) Dew Point ( °F °C ) Humidity (%) Winds ( mph kmh ) Pressure ( in mb ) Visibility ( mi km ) Precip ( " mm )
12:53 am 00:53 Mostly Clear 77 25 61 16.1 58 58 W 3 6 29.72 1006 10 16 0.00 0.00
1:53 am 01:53 Mostly Cloudy 77 25 62 16.7 60 60 Calm 29.72 1006 10 16 0.00 0.00
2:53 am 02:53 Mostly Cloudy 76 24.4 63 17.2 64 64 SW 3 6 29.72 1006 10 16 0.00 0.00
3:53 am 03:53 Partly Cloudy 76 24.4 64 17.8 67 67 WSW 8 13 29.72 1007 10 16 0.00 0.00
4:53 am 04:53 Partly Cloudy 76 24.4 63 17.2 64 64 W 10 17 29.73 1007 10 16 0.00 0.00
5:53 am 05:53 Mostly Cloudy 74 23.3 64 17.8 71 71 NW 9 15 29.74 1007 10 16 0.00 0.00
6:53 am 06:53 Mostly Sunny 74 23.3 64 17.8 71 71 NW 8 13 29.76 1008 10 16 0.00 0.00
7:53 am 07:53 Mostly Sunny 75 23.9 61 16.1 62 62 NW 13 20 29.77 1008 10 16 0.00 0.00
8:53 am 08:53 Mostly Cloudy 76 24.4 57 13.9 52 52 NNW 12 19 29.80 1009 10 16 0.00 0.00
9:53 am 09:53 Partly Cloudy 79 26.1 54 12.2 42 42 NW 12 19 29.81 1010 10 16 0.00 0.00
10:53 am 10:53 Mostly Sunny 81 27.2 54 12.2 39 39 NW 15 24 29.82 1010 10 16 0.00 0.00
11:53 am 11:53 Sunny 83 28.3 49 9.4 31 31 NNW 18 30 29.83 1010 10 16 0.00 0.00
12:53 pm 12:53 Mostly Sunny 83 28.3 49 9.4 31 31 NNW 18 30 29.83 1010 10 16 0.00 0.00
1:53 pm 13:53 Mostly Sunny 84 28.9 50 10 31 31 NW 12 19 29.83 1010 10 16 0.00 0.00
2:53 pm 14:53 Mostly Sunny 85 29.4 48 8.9 28 28 NW 15 24 29.82 1010 10 16 0.00 0.00
3:53 pm 15:53 Mostly Sunny 86 30 49 9.4 28 28 NW 20 31 29.81 1010 10 16 0.00 0.00
4:53 pm 16:53 Mostly Sunny 87 30.6 50 10 28 28 NW 18 30 29.81 1010 9 14 0.00 0.00
5:53 pm 17:53 Sunny 86 30 50 10 29 29 NW 9 15 29.81 1010 10 16 0.00 0.00
6:53 pm 18:53 Sunny 85 29.4 50 10 30 30 NW 12 19 29.80 1009 10 16 0.00 0.00
7:53 pm 19:53 Mostly Sunny 83 28.3 49 9.4 31 31 WNW 9 15 29.81 1010 10 16 0.00 0.00
8:53 pm 20:53 Partly Cloudy 81 27.2 50 10 34 34 WNW 7 11 29.83 1010 10 16 0.00 0.00
9:53 pm 21:53 Partly Cloudy 80 26.7 53 11.7 39 39 W 6 9 29.82 1010 10 16 0.00 0.00
10:53 pm 22:53 Partly Cloudy 78 25.6 55 12.8 45 45 WSW 9 15 29.83 1010 10 16 0.00 0.00
11:53 pm 23:53 Partly Cloudy 76 24.4 57 13.9 52 52 SW 9 15 29.83 1010 10 16 0.00 0.00

Powered by AerisWeather